| time (UTC) | temp F | wind direction | speed MPH | gust MPH | rain 1hr in | rain 24hr in | rain mn in | humidity % | barometer mb |
| 20260906163323 | 64 | 315 | 1.0 | 1.0 | 0.00 | 0.37 | 0.37 | 72 | 1042.5 |
| 20260906162820 | 64 | 359 | 0.0 | 1.0 | 0.00 | 0.37 | 0.37 | 77 | 1042.5 |
| 20260906162320 | 63 | 322 | 1.0 | 1.0 | 0.00 | 0.37 | 0.37 | 77 | 1042.7 |
| 20260906161815 | 63 | 337 | 0.0 | 0.0 | 0.00 | 0.37 | 0.37 | 79 | 1042.8 |
| 20260906161314 | 63 | 343 | 1.0 | 1.0 | 0.00 | 0.37 | 0.37 | 83 | 1042.9 |
| 20260906160813 | 63 | 34 | 1.0 | 2.0 | 0.00 | 0.37 | 0.37 | 83 | 1042.7 |
| 20260906160308 | 62 | 317 | 1.0 | 1.0 | 0.00 | 0.37 | 0.37 | 83 | 1042.8 |
| 20260906155805 | 62 | 355 | 1.0 | 1.0 | 0.00 | 0.37 | 0.37 | 85 | 1042.9 |
| 20260906155300 | 62 | 338 | 1.0 | 2.0 | 0.00 | 0.37 | 0.37 | 83 | 1042.9 |
| 20260906154756 | 62 | 7 | 0.0 | 1.0 | 0.00 | 0.37 | 0.37 | 83 | 1043.1 |
| 20260906154250 | 62 | 40 | 0.0 | 0.0 | 0.00 | 0.37 | 0.37 | 84 | 1043.2 |
| 20260906153749 | 61 | 354 | 0.0 | 0.0 | 0.00 | 0.37 | 0.37 | 88 | 1043.1 |
| 20260906153243 | 61 | 353 | 0.0 | 0.0 | 0.00 | 0.37 | 0.37 | 87 | 1043.1 |
| 20260906152739 | 61 | 327 | 0.0 | 0.0 | 0.00 | 0.37 | 0.37 | 89 | 1043.2 |
| 20260906152233 | 61 | 348 | 0.0 | 0.0 | 0.00 | 0.37 | 0.37 | 87 | 1043.2 |
| 20260906151732 | 61 | 3 | 0.0 | 0.0 | 0.00 | 0.37 | 0.37 | 87 | 1043.3 |
| 20260906151228 | 61 | 18 | 0.0 | 0.0 | 0.00 | 0.37 | 0.37 | 87 | 1043.2 |
| 20260906150724 | 61 | 129 | 1.0 | 3.0 | 0.00 | 0.37 | 0.37 | 89 | 1043.2 |
| 20260906150219 | 61 | 342 | 0.0 | 0.0 | 0.00 | 0.37 | 0.37 | 90 | 1043.1 |
| 20260906145718 | 60 | 345 | 0.0 | 0.0 | 0.00 | 0.37 | 0.37 | 91 | 1042.9 |
| 20260906145217 | 60 | 346 | 0.0 | 0.0 | 0.00 | 0.37 | 0.37 | 90 | 1043.1 |
| 20260906144712 | 60 | 21 | 1.0 | 1.0 | 0.00 | 0.37 | 0.37 | 90 | 1043.2 |
| 20260906144207 | 61 | 18 | 0.0 | 1.0 | 0.00 | 0.37 | 0.37 | 91 | 1043.0 |
| 20260906143706 | 60 | 344 | 0.0 | 0.0 | 0.00 | 0.37 | 0.37 | 91 | 1043.0 |
| 20260906143204 | 59 | 348 | 0.0 | 1.0 | 0.00 | 0.37 | 0.37 | 93 | 1043.1 |
| 20260906142703 | 59 | 332 | 0.0 | 1.0 | 0.00 | 0.37 | 0.37 | 93 | 1043.0 |
| 20260906142159 | 58 | 322 | 0.0 | 0.0 | 0.00 | 0.37 | 0.37 | 95 | 1043.2 |
| 20260906141657 | 58 | 325 | 0.0 | 0.0 | 0.00 | 0.37 | 0.37 | 96 | 1042.9 |
| 20260906141152 | 58 | 337 | 0.0 | 0.0 | 0.00 | 0.37 | 0.37 | 97 | 1043.0 |
| 20260906140652 | 58 | 333 | 0.0 | 0.0 | 0.00 | 0.37 | 0.37 | 97 | 1042.9 |
| 20260906140147 | 58 | 334 | 0.0 | 0.0 | 0.00 | 0.37 | 0.37 | 97 | 1042.9 |
| 20260906135644 | 58 | 348 | 0.0 | 0.0 | 0.00 | 0.37 | 0.37 | 97 | 1042.8 |
| 20260906135140 | 58 | 340 | 0.0 | 0.0 | 0.00 | 0.37 | 0.37 | 97 | 1042.9 |
| 20260906134635 | 58 | 349 | 0.0 | 0.0 | 0.00 | 0.37 | 0.37 | 97 | 1042.9 |
| 20260906134130 | 58 | 325 | 0.0 | 0.0 | 0.00 | 0.37 | 0.37 | 98 | 1042.7 |
| 20260906133626 | 58 | 331 | 0.0 | 1.0 | 0.00 | 0.37 | 0.37 | 98 | 1042.9 |
| 20260906133120 | 58 | 350 | 0.0 | 0.0 | 0.00 | 0.37 | 0.37 | 97 | 1042.8 |
| 20260906132615 | 58 | 0 | 0.0 | 1.0 | 0.00 | 0.37 | 0.37 | 98 | 1042.8 |
| 20260906132111 | 58 | 357 | 0.0 | 1.0 | 0.00 | 0.37 | 0.37 | 98 | 1042.8 |
| 20260906131607 | 58 | 3 | 1.0 | 1.0 | 0.00 | 0.37 | 0.37 | 98 | 1043.0 |
| 20260906131101 | 58 | 6 | 1.0 | 1.0 | 0.00 | 0.37 | 0.37 | 98 | 1042.8 |
| 20260906130556 | 58 | 343 | 0.0 | 0.0 | 0.00 | 0.37 | 0.37 | 98 | 1042.7 |
| 20260906130051 | 57 | 341 | 0.0 | 0.0 | 0.00 | 0.37 | 0.37 | 99 | 1042.8 |
| 20260906125548 | 58 | 334 | 0.0 | 0.0 | 0.00 | 0.37 | 0.37 | 99 | 1042.8 |
| 20260906125042 | 58 | 323 | 0.0 | 0.0 | 0.00 | 0.37 | 0.37 | 99 | 1042.9 |
| 20260906124537 | 58 | 333 | 0.0 | 0.0 | 0.00 | 0.37 | 0.37 | 99 | 1042.7 |
| 20260906124032 | 57 | 19 | 1.0 | 1.0 | 0.00 | 0.37 | 0.37 | 99 | 1042.9 |
| 20260906123531 | 57 | 343 | 0.0 | 0.0 | 0.00 | 0.37 | 0.37 | 99 | 1042.7 |
| 20260906123027 | 58 | 334 | 0.0 | 0.0 | 0.00 | 0.37 | 0.37 | 99 | 1042.8 |
| 20260906122521 | 57 | 346 | 0.0 | 0.0 | 0.00 | 0.37 | 0.37 | 99 | 1042.5 |
| 20260906122018 | 57 | 337 | 0.0 | 0.0 | 0.00 | 0.37 | 0.37 | 99 | 1042.6 |
| 20260906121514 | 57 | 335 | 0.0 | 0.0 | 0.00 | 0.37 | 0.37 | 99 | 1042.5 |
| 20260906121010 | 57 | 350 | 0.0 | 0.0 | 0.00 | 0.37 | 0.37 | 99 | 1042.6 |
| 20260906120510 | 57 | 331 | 0.0 | 0.0 | 0.00 | 0.37 | 0.37 | 99 | 1042.5 |
| 20260906120007 | 56 | 329 | 0.0 | 0.0 | 0.00 | 0.37 | 0.37 | 99 | 1042.5 |
| 20260906115501 | 57 | 326 | 0.0 | 0.0 | 0.00 | 0.37 | 0.37 | 99 | 1042.5 |
| 20260906114956 | 56 | 330 | 0.0 | 0.0 | 0.00 | 0.37 | 0.37 | 99 | 1042.5 |
| 20260906114450 | 56 | 323 | 0.0 | 0.0 | 0.00 | 0.37 | 0.37 | 99 | 1042.6 |
| 20260906113947 | 56 | 323 | 0.0 | 0.0 | 0.00 | 0.37 | 0.37 | 99 | 1042.2 |
| 20260906113445 | 56 | 323 | 0.0 | 0.0 | 0.00 | 0.37 | 0.37 | 99 | 1042.4 |
| 20260906112941 | 56 | 323 | 0.0 | 0.0 | 0.00 | 0.37 | 0.37 | 99 | 1042.3 |
| 20260906112436 | 56 | 324 | 0.0 | 0.0 | 0.00 | 0.37 | 0.37 | 99 | 1042.3 |
| 20260906111932 | 56 | 324 | 0.0 | 0.0 | 0.07 | 0.37 | 0.37 | 99 | 1042.1 |
| 20260906111431 | 56 | 324 | 0.0 | 0.0 | 0.12 | 0.37 | 0.37 | 99 | 1042.1 |
| 20260906110926 | 56 | 328 | 0.0 | 0.0 | 0.12 | 0.36 | 0.36 | 99 | 1042.2 |
| 20260906110422 | 56 | 326 | 0.0 | 0.0 | 0.07 | 0.35 | 0.35 | 99 | 1042.1 |
| 20260906105921 | 56 | 332 | 0.0 | 0.0 | 0.00 | 0.34 | 0.34 | 99 | 1041.9 |
| 20260906105417 | 57 | 347 | 0.0 | 0.0 | 0.07 | 0.34 | 0.34 | 99 | 1042.2 |
| 20260906104912 | 57 | 331 | 0.0 | 0.0 | 0.12 | 0.34 | 0.34 | 99 | 1041.9 |
| 20260906104411 | 57 | 330 | 0.0 | 0.0 | 0.05 | 0.33 | 0.33 | 99 | 1041.8 |
| 20260906103910 | 57 | 331 | 0.0 | 0.0 | 0.00 | 0.32 | 0.32 | 99 | 1041.8 |
| 20260906103408 | 57 | 330 | 0.0 | 0.0 | 0.00 | 0.32 | 0.32 | 99 | 1041.9 |
| 20260906102904 | 56 | 331 | 0.0 | 0.0 | 0.00 | 0.32 | 0.32 | 99 | 1041.7 |
| 20260906102403 | 56 | 331 | 0.0 | 0.0 | 0.00 | 0.32 | 0.32 | 99 | 1041.9 |
| 20260906101858 | 56 | 331 | 0.0 | 0.0 | 0.07 | 0.32 | 0.32 | 99 | 1041.7 |
| 20260906101353 | 56 | 331 | 0.0 | 0.0 | 0.07 | 0.32 | 0.32 | 99 | 1041.8 |
| 20260906100849 | 56 | 331 | 0.0 | 0.0 | 0.00 | 0.31 | 0.31 | 99 | 1041.7 |
| 20260906100348 | 56 | 331 | 0.0 | 0.0 | 0.00 | 0.31 | 0.31 | 99 | 1041.7 |
| 20260906095843 | 56 | 330 | 0.0 | 0.0 | 0.00 | 0.31 | 0.31 | 99 | 1041.8 |
| 20260906095338 | 56 | 344 | 0.0 | 0.0 | 0.00 | 0.31 | 0.31 | 99 | 1041.5 |
| 20260906094838 | 56 | 343 | 0.0 | 0.0 | 0.00 | 0.31 | 0.31 | 99 | 1041.6 |
| 20260906094333 | 56 | 343 | 0.0 | 0.0 | 0.12 | 0.31 | 0.31 | 99 | 1041.6 |
| 20260906093830 | 56 | 345 | 0.0 | 0.0 | 0.24 | 0.31 | 0.31 | 99 | 1041.4 |
| 20260906093325 | 56 | 331 | 0.0 | 0.0 | 0.47 | 0.30 | 0.30 | 99 | 1041.5 |
| 20260906092819 | 56 | 337 | 0.0 | 0.0 | 0.42 | 0.28 | 0.28 | 99 | 1041.5 |
| 20260906092314 | 56 | 342 | 0.0 | 0.0 | 0.14 | 0.22 | 0.22 | 99 | 1041.4 |
| 20260906091809 | 57 | 333 | 0.0 | 0.0 | 0.12 | 0.21 | 0.21 | 99 | 1041.5 |
| 20260906091305 | 57 | 337 | 0.0 | 0.0 | 0.05 | 0.20 | 0.20 | 99 | 1041.3 |
| 20260906090802 | 57 | 345 | 0.0 | 0.0 | 0.07 | 0.19 | 0.19 | 99 | 1041.2 |
| 20260906090301 | 57 | 355 | 0.0 | 0.0 | 0.07 | 0.19 | 0.19 | 99 | 1041.3 |
| 20260906085800 | 57 | 352 | 0.0 | 1.0 | 0.00 | 0.18 | 0.18 | 99 | 1041.2 |
| 20260906085253 | 57 | 334 | 0.0 | 0.0 | 0.00 | 0.18 | 0.18 | 99 | 1041.3 |
| 20260906084748 | 57 | 348 | 0.0 | 0.0 | 0.05 | 0.18 | 0.18 | 99 | 1041.1 |
| 20260906084242 | 57 | 358 | 0.0 | 0.0 | 0.05 | 0.18 | 0.18 | 99 | 1041.2 |
| 20260906083737 | 57 | 337 | 0.0 | 0.0 | 0.00 | 0.17 | 0.17 | 99 | 1041.2 |
| 20260906083233 | 57 | 329 | 0.0 | 0.0 | 0.12 | 0.17 | 0.17 | 99 | 1041.2 |
| 20260906082728 | 57 | 333 | 0.0 | 0.0 | 0.12 | 0.17 | 0.17 | 99 | 1041.1 |
| 20260906082223 | 57 | 342 | 0.0 | 0.0 | 0.05 | 0.16 | 0.16 | 99 | 1041.2 |
| 20260906081719 | 57 | 332 | 0.0 | 0.0 | 0.07 | 0.15 | 0.15 | 99 | 1041.1 |
| 20260906081213 | 57 | 327 | 0.0 | 0.0 | 0.07 | 0.15 | 0.15 | 99 | 1041.0 |
| 20260906080710 | 57 | 339 | 0.0 | 0.0 | 0.05 | 0.14 | 0.14 | 99 | 1040.9 |
| 20260906080206 | 57 | 337 | 0.0 | 0.0 | 0.12 | 0.14 | 0.14 | 99 | 1040.9 |
| 20260906075700 | 57 | 332 | 0.0 | 0.0 | 0.17 | 0.14 | 0.14 | 99 | 1041.0 |
| 20260906075154 | 57 | 331 | 0.0 | 0.0 | 0.05 | 0.12 | 0.12 | 99 | 1041.0 |
| 20260906074650 | 57 | 23 | 1.0 | 1.0 | 0.00 | 0.11 | 0.11 | 99 | 1040.8 |
| 20260906074149 | 57 | 7 | 0.0 | 1.0 | 0.00 | 0.11 | 0.11 | 99 | 1040.8 |
| 20260906073644 | 57 | 346 | 0.0 | 0.0 | 0.07 | 0.11 | 0.11 | 99 | 1040.9 |
| 20260906073140 | 57 | 340 | 0.0 | 0.0 | 0.07 | 0.11 | 0.11 | 99 | 1041.0 |
| 20260906072635 | 57 | 334 | 0.0 | 0.0 | 0.00 | 0.10 | 0.10 | 99 | 1040.8 |
| 20260906072130 | 58 | 339 | 0.0 | 0.0 | 0.00 | 0.10 | 0.10 | 99 | 1040.9 |
| 20260906071626 | 58 | 345 | 0.0 | 0.0 | 0.00 | 0.10 | 0.10 | 99 | 1040.9 |
| 20260906071121 | 58 | 345 | 0.0 | 0.0 | 0.00 | 0.10 | 0.10 | 99 | 1040.9 |
| 20260906070618 | 58 | 345 | 0.0 | 0.0 | 0.00 | 0.10 | 0.10 | 99 | 1040.8 |
| 20260906070113 | 58 | 345 | 0.0 | 0.0 | 0.00 | 0.10 | 0.10 | 99 | 1040.9 |
| 20260906065613 | 58 | 342 | 0.0 | 0.0 | 0.05 | 0.10 | 0.10 | 99 | 1040.9 |
| 20260906065108 | 58 | 342 | 0.0 | 0.0 | 0.12 | 0.10 | 0.10 | 99 | 1040.9 |
| 20260906064603 | 58 | 342 | 0.0 | 0.0 | 0.14 | 0.09 | 0.09 | 99 | 1040.8 |
| 20260906064058 | 58 | 342 | 0.0 | 0.0 | 0.07 | 0.08 | 0.08 | 99 | 1040.9 |
| 20260906063554 | 58 | 342 | 0.0 | 0.0 | 0.07 | 0.08 | 0.08 | 99 | 1040.9 |
| 20260906063049 | 58 | 342 | 0.0 | 0.0 | 0.00 | 0.07 | 0.07 | 99 | 1040.8 |
| 20260906062544 | 58 | 342 | 0.0 | 0.0 | 0.00 | 0.07 | 0.07 | 99 | 1041.1 |
| 20260906062038 | 58 | 342 | 0.0 | 0.0 | 0.00 | 0.07 | 0.07 | 99 | 1041.0 |
| 20260906061535 | 58 | 342 | 0.0 | 0.0 | 0.00 | 0.07 | 0.07 | 99 | 1040.8 |
| 20260906061034 | 58 | 342 | 0.0 | 0.0 | 0.00 | 0.07 | 0.07 | 99 | 1040.8 |
| 20260906060531 | 58 | 342 | 0.0 | 0.0 | 0.00 | 0.07 | 0.07 | 99 | 1040.8 |
| 20260906060028 | 58 | 342 | 0.0 | 0.0 | 0.00 | 0.07 | 0.07 | 99 | 1041.0 |
| 20260906055523 | 58 | 342 | 0.0 | 0.0 | 0.00 | 0.07 | 0.07 | 99 | 1041.0 |
| 20260906055019 | 58 | 341 | 0.0 | 0.0 | 0.00 | 0.07 | 0.07 | 99 | 1040.8 |
| 20260906054518 | 58 | 340 | 0.0 | 0.0 | 0.05 | 0.07 | 0.07 | 99 | 1040.9 |
| 20260906054014 | 58 | 339 | 0.0 | 0.0 | 0.05 | 0.07 | 0.07 | 99 | 1040.7 |
| 20260906053510 | 58 | 340 | 0.0 | 0.0 | 0.05 | 0.07 | 0.07 | 99 | 1040.8 |
| 20260906053006 | 58 | 340 | 0.0 | 0.0 | 0.07 | 0.06 | 0.06 | 99 | 1040.8 |
| 20260906052501 | 58 | 340 | 0.0 | 0.0 | 0.12 | 0.06 | 0.06 | 99 | 1040.7 |
| 20260906051958 | 58 | 340 | 0.0 | 0.0 | 0.12 | 0.05 | 0.05 | 99 | 1040.6 |
| 20260906051453 | 58 | 340 | 0.0 | 0.0 | 0.07 | 0.04 | 0.04 | 99 | 1040.7 |
| 20260906050949 | 58 | 340 | 0.0 | 0.0 | 0.00 | 0.03 | 0.03 | 99 | 1040.9 |
| 20260906050448 | 58 | 346 | 0.0 | 0.0 | 0.05 | 0.03 | 0.03 | 99 | 1041.1 |
| 20260906045948 | 58 | 346 | 0.0 | 0.0 | 0.05 | 0.03 | 0.03 | 99 | 1041.0 |
| 20260906045447 | 59 | 347 | 0.0 | 0.0 | 0.00 | 0.02 | 0.02 | 99 | 1041.0 |
| 20260906044943 | 59 | 335 | 0.0 | 0.0 | 0.00 | 0.02 | 0.02 | 99 | 1040.9 |
| 20260906044438 | 59 | 335 | 0.0 | 0.0 | 0.00 | 0.02 | 0.02 | 99 | 1041.0 |
| 20260906043933 | 59 | 340 | 0.0 | 0.0 | 0.00 | 0.02 | 0.02 | 99 | 1040.8 |
| 20260906043429 | 59 | 348 | 0.0 | 0.0 | 0.07 | 0.02 | 0.02 | 99 | 1041.0 |
| 20260906042925 | 59 | 347 | 0.0 | 0.0 | 0.07 | 0.02 | 0.02 | 99 | 1040.9 |
| 20260906042424 | 59 | 345 | 0.0 | 0.0 | 0.00 | 0.01 | 0.01 | 99 | 1041.0 |
| 20260906041919 | 59 | 343 | 0.0 | 0.0 | 0.05 | 0.01 | 0.01 | 99 | 1040.9 |
| 20260906041414 | 59 | 340 | 0.0 | 0.0 | 0.05 | 0.01 | 0.01 | 99 | 1041.2 |
| 20260906040909 | 59 | 340 | 0.0 | 0.0 | 0.00 | 0.00 | 0.00 | 99 | 1041.2 |
| 20260906040404 | 59 | 341 | 0.0 | 0.0 | 0.00 | 0.00 | 0.00 | 99 | 1041.1 |
| 20260906035859 | 59 | 340 | 0.0 | 0.0 | 0.00 | 0.09 | 0.09 | 99 | 1041.0 |
| 20260906035354 | 59 | 339 | 0.0 | 0.0 | 0.00 | 0.09 | 0.09 | 99 | 1041.0 |
| 20260906034849 | 59 | 3 | 0.0 | 0.0 | 0.00 | 0.09 | 0.09 | 99 | 1040.9 |
| 20260906034344 | 59 | 333 | 0.0 | 0.0 | 0.00 | 0.09 | 0.09 | 99 | 1041.0 |
| 20260906033840 | 59 | 335 | 0.0 | 0.0 | 0.00 | 0.09 | 0.09 | 99 | 1040.9 |
| 20260906033339 | 60 | 317 | 0.0 | 0.0 | 0.00 | 0.09 | 0.09 | 99 | 1040.8 |
| 20260906032836 | 60 | 317 | 0.0 | 0.0 | 0.00 | 0.09 | 0.09 | 99 | 1040.8 |
| 20260906032331 | 60 | 317 | 0.0 | 0.0 | 0.00 | 0.09 | 0.09 | 99 | 1040.8 |
| 20260906031826 | 60 | 317 | 0.0 | 0.0 | 0.07 | 0.09 | 0.09 | 99 | 1040.7 |
| 20260906031322 | 60 | 317 | 0.0 | 0.0 | 0.07 | 0.09 | 0.09 | 99 | 1040.7 |
| 20260906030821 | 60 | 317 | 0.0 | 0.0 | 0.00 | 0.08 | 0.08 | 99 | 1040.7 |
| 20260906030316 | 60 | 318 | 0.0 | 0.0 | 0.00 | 0.08 | 0.08 | 99 | 1040.7 |
| 20260906025811 | 60 | 317 | 0.0 | 0.0 | 0.00 | 0.08 | 0.08 | 99 | 1040.8 |
| 20260906025306 | 60 | 318 | 0.0 | 0.0 | 0.00 | 0.08 | 0.08 | 99 | 1040.8 |
| 20260906024804 | 60 | 317 | 0.0 | 0.0 | 0.00 | 0.08 | 0.08 | 99 | 1040.8 |
| 20260906024303 | 60 | 317 | 0.0 | 0.0 | 0.00 | 0.08 | 0.08 | 99 | 1040.9 |
| 20260906023759 | 60 | 317 | 0.0 | 0.0 | 0.05 | 0.08 | 0.08 | 99 | 1040.7 |
| 20260906023254 | 60 | 317 | 0.0 | 0.0 | 0.05 | 0.08 | 0.08 | 99 | 1040.7 |
| 20260906022750 | 60 | 317 | 0.0 | 0.0 | 0.00 | 0.07 | 0.07 | 99 | 1040.7 |
| 20260906022245 | 60 | 317 | 0.0 | 0.0 | 0.00 | 0.07 | 0.07 | 99 | 1040.8 |
| 20260906021741 | 60 | 317 | 0.0 | 0.0 | 0.00 | 0.07 | 0.07 | 99 | 1040.8 |
| 20260906021234 | 60 | 317 | 0.0 | 0.0 | 0.00 | 0.07 | 0.07 | 99 | 1040.8 |
| 20260906020729 | 60 | 317 | 0.0 | 0.0 | 0.00 | 0.07 | 0.07 | 99 | 1040.8 |
| 20260906020224 | 60 | 317 | 0.0 | 0.0 | 0.00 | 0.07 | 0.07 | 99 | 1040.8 |
| 20260906015724 | 60 | 317 | 0.0 | 0.0 | 0.00 | 0.07 | 0.07 | 99 | 1040.6 |
| 20260906015222 | 60 | 317 | 0.0 | 0.0 | 0.00 | 0.07 | 0.07 | 99 | 1040.6 |
| 20260906014716 | 60 | 317 | 0.0 | 0.0 | 0.00 | 0.07 | 0.07 | 99 | 1040.6 |
| 20260906014213 | 60 | 317 | 0.0 | 0.0 | 0.00 | 0.07 | 0.07 | 99 | 1040.4 |
| 20260906013708 | 60 | 317 | 0.0 | 0.0 | 0.00 | 0.07 | 0.07 | 99 | 1040.9 |
| 20260906013208 | 60 | 317 | 0.0 | 0.0 | 0.00 | 0.07 | 0.07 | 99 | 1040.8 |
| 20260906012704 | 60 | 317 | 0.0 | 0.0 | 0.00 | 0.07 | 0.07 | 99 | 1040.7 |
| 20260906012158 | 60 | 317 | 0.0 | 0.0 | 0.00 | 0.07 | 0.07 | 99 | 1040.8 |
| 20260906011654 | 61 | 317 | 0.0 | 0.0 | 0.00 | 0.07 | 0.07 | 99 | 1040.8 |
| 20260906011148 | 60 | 323 | 0.0 | 0.0 | 0.07 | 0.07 | 0.07 | 99 | 1040.8 |
| 20260906010644 | 60 | 317 | 0.0 | 1.0 | 0.07 | 0.07 | 0.07 | 99 | 1040.4 |
| 20260906010140 | 61 | 312 | 0.0 | 1.0 | 0.00 | 0.06 | 0.06 | 99 | 1040.8 |
| 20260906005639 | 60 | 336 | 0.0 | 0.0 | 0.00 | 0.06 | 0.06 | 99 | 1040.7 |
| 20260906005138 | 60 | 339 | 0.0 | 0.0 | 0.00 | 0.06 | 0.06 | 99 | 1040.6 |
| 20260906004638 | 60 | 332 | 0.0 | 0.0 | 0.05 | 0.06 | 0.06 | 98 | 1040.3 |
| 20260906004133 | 60 | 312 | 0.0 | 0.0 | 0.19 | 0.06 | 0.06 | 98 | 1040.4 |
| 20260906003628 | 61 | 319 | 0.0 | 0.0 | 0.14 | 0.05 | 0.05 | 99 | 1040.4 |
| 20260906003124 | 61 | 344 | 0.0 | 0.0 | 0.00 | 0.03 | 0.03 | 98 | 1040.4 |
| 20260906002618 | 62 | 345 | 0.0 | 0.0 | 0.05 | 0.03 | 0.03 | 98 | 1040.4 |
| 20260906002113 | 62 | 352 | 0.0 | 0.0 | 0.05 | 0.03 | 0.03 | 98 | 1040.2 |
| 20260906001608 | 62 | 343 | 0.0 | 0.0 | 0.00 | 0.02 | 0.02 | 98 | 1040.2 |
| 20260906001103 | 62 | 343 | 0.0 | 0.0 | 0.00 | 0.02 | 0.02 | 98 | 1040.3 |
| 20260906000559 | 62 | 358 | 0.0 | 0.0 | 0.07 | 0.02 | 0.02 | 97 | 1040.3 |
| 20260906000054 | 62 | 331 | 0.0 | 0.0 | 0.07 | 0.02 | 0.02 | 97 | 1040.0 |
| 20260905235553 | 62 | 331 | 0.0 | 0.0 | 0.00 | 0.01 | 0.01 | 97 | 1039.8 |
| 20260905235048 | 62 | 331 | 0.0 | 0.0 | 0.00 | 0.01 | 0.01 | 97 | 1040.1 |
| 20260905234544 | 62 | 332 | 0.0 | 0.0 | 0.00 | 0.01 | 0.01 | 97 | 1039.9 |
| 20260905234039 | 62 | 317 | 0.0 | 0.0 | 0.00 | 0.01 | 0.01 | 97 | 1039.9 |
| 20260905233538 | 62 | 324 | 0.0 | 0.0 | 0.00 | 0.01 | 0.01 | 97 | 1039.7 |
| 20260905233033 | 62 | 341 | 0.0 | 0.0 | 0.00 | 0.01 | 0.01 | 97 | 1039.9 |
| 20260905232528 | 62 | 352 | 0.0 | 0.0 | 0.00 | 0.01 | 0.01 | 96 | 1039.8 |
| 20260905232024 | 62 | 348 | 0.0 | 0.0 | 0.05 | 0.01 | 0.01 | 96 | 1039.7 |
| 20260905231519 | 62 | 23 | 0.0 | 0.0 | 0.05 | 0.01 | 0.01 | 95 | 1039.8 |
| 20260905231015 | 63 | 353 | 0.0 | 0.0 | 0.00 | 0.00 | 0.00 | 95 | 1039.7 |
| 20260905230514 | 63 | 350 | 0.0 | 0.0 | 0.00 | 0.00 | 0.00 | 94 | 1039.7 |
| 20260905230013 | 64 | 28 | 0.0 | 1.0 | 0.00 | 0.00 | 0.00 | 93 | 1039.7 |
| 20260905225508 | 64 | 346 | 0.0 | 0.0 | 0.00 | 0.00 | 0.00 | 90 | 1039.8 |
| 20260905225003 | 65 | 344 | 1.0 | 1.0 | 0.00 | 0.00 | 0.00 | 87 | 1039.6 |
| 20260905224458 | 65 | 64 | 1.0 | 3.0 | 0.00 | 0.00 | 0.00 | 86 | 1039.3 |
| 20260905223957 | 66 | 345 | 0.0 | 1.0 | 0.00 | 0.00 | 0.00 | 85 | 1039.5 |
| 20260905223455 | 66 | 344 | 0.0 | 1.0 | 0.00 | 0.00 | 0.00 | 84 | 1039.2 |
| 20260905222950 | 67 | 7 | 1.0 | 1.0 | 0.00 | 0.00 | 0.00 | 82 | 1039.2 |
| 20260905222449 | 67 | 309 | 1.0 | 1.0 | 0.00 | 0.00 | 0.00 | 80 | 1039.2 |
| 20260905221945 | 68 | 43 | 2.0 | 2.0 | 0.00 | 0.00 | 0.00 | 79 | 1038.9 |
| 20260905221441 | 68 | 348 | 0.0 | 1.0 | 0.00 | 0.00 | 0.00 | 78 | 1038.8 |
| 20260905220937 | 68 | 355 | 0.0 | 0.0 | 0.00 | 0.00 | 0.00 | 78 | 1038.8 |
| 20260905220433 | 69 | 343 | 0.0 | 0.0 | 0.00 | 0.00 | 0.00 | 79 | 1038.8 |
| 20260905215932 | 69 | 350 | 0.0 | 0.0 | 0.00 | 0.00 | 0.00 | 77 | 1038.7 |
| 20260905215428 | 69 | 328 | 0.0 | 0.0 | 0.00 | 0.00 | 0.00 | 75 | 1038.5 |
| 20260905214924 | 69 | 341 | 0.0 | 0.0 | 0.00 | 0.00 | 0.00 | 75 | 1038.6 |
| 20260905214419 | 69 | 349 | 0.0 | 0.0 | 0.00 | 0.00 | 0.00 | 78 | 1038.6 |
| 20260905213914 | 69 | 356 | 0.0 | 0.0 | 0.00 | 0.00 | 0.00 | 77 | 1038.7 |
| 20260905213410 | 70 | 345 | 0.0 | 0.0 | 0.00 | 0.00 | 0.00 | 76 | 1038.6 |
| 20260905212905 | 71 | 347 | 0.0 | 0.0 | 0.00 | 0.00 | 0.00 | 74 | 1038.4 |
| 20260905212400 | 73 | 332 | 0.0 | 0.0 | 0.00 | 0.00 | 0.00 | 71 | 1038.4 |
| 20260905211854 | 73 | 340 | 0.0 | 0.0 | 0.00 | 0.00 | 0.00 | 68 | 1038.5 |
| 20260905211349 | 73 | 354 | 0.0 | 0.0 | 0.00 | 0.00 | 0.00 | 67 | 1038.4 |
| 20260905210846 | 75 | 16 | 0.0 | 1.0 | 0.00 | 0.00 | 0.00 | 64 | 1038.1 |
| 20260905210345 | 74 | 313 | 0.0 | 0.0 | 0.00 | 0.00 | 0.00 | 68 | 1038.2 |
| 20260905205844 | 73 | 355 | 1.0 | 1.0 | 0.00 | 0.00 | 0.00 | 68 | 1038.1 |
| 20260905205339 | 75 | 7 | 0.0 | 1.0 | 0.00 | 0.00 | 0.00 | 64 | 1038.1 |
| 20260905204838 | 74 | 346 | 0.0 | 0.0 | 0.00 | 0.00 | 0.00 | 69 | 1038.0 |
| 20260905204335 | 73 | 312 | 0.0 | 1.0 | 0.00 | 0.00 | 0.00 | 67 | 1037.8 |
| 20260905203833 | 72 | 355 | 0.0 | 1.0 | 0.00 | 0.00 | 0.00 | 72 | 1038.1 |
| 20260905203329 | 72 | 346 | 0.0 | 0.0 | 0.00 | 0.00 | 0.00 | 71 | 1038.0 |
| 20260905202825 | 71 | 341 | 0.0 | 1.0 | 0.00 | 0.00 | 0.00 | 72 | 1038.1 |
| 20260905202320 | 71 | 336 | 0.0 | 0.0 | 0.00 | 0.00 | 0.00 | 75 | 1037.9 |
| 20260905201815 | 71 | 330 | 0.0 | 0.0 | 0.00 | 0.00 | 0.00 | 73 | 1038.0 |
| 20260905201310 | 70 | 344 | 0.0 | 0.0 | 0.00 | 0.00 | 0.00 | 73 | 1037.9 |
| 20260905200805 | 71 | 314 | 0.0 | 0.0 | 0.00 | 0.00 | 0.00 | 73 | 1038.1 |
| 20260905200301 | 70 | 321 | 0.0 | 0.0 | 0.00 | 0.00 | 0.00 | 72 | 1038.0 |
| 20260905195759 | 70 | 339 | 0.0 | 0.0 | 0.00 | 0.00 | 0.00 | 75 | 1038.1 |
| 20260905195254 | 70 | 352 | 0.0 | 1.0 | 0.00 | 0.00 | 0.00 | 73 | 1038.0 |
| 20260905194749 | 70 | 345 | 0.0 | 0.0 | 0.00 | 0.00 | 0.00 | 74 | 1038.0 |
| 20260905194249 | 70 | 28 | 1.0 | 1.0 | 0.00 | 0.00 | 0.00 | 72 | 1038.1 |
| 20260905193748 | 70 | 72 | 1.0 | 1.0 | 0.00 | 0.00 | 0.00 | 72 | 1038.0 |
| 20260905193244 | 70 | 330 | 0.0 | 0.0 | 0.00 | 0.00 | 0.00 | 73 | 1038.0 |
| 20260905192739 | 70 | 341 | 0.0 | 0.0 | 0.00 | 0.00 | 0.00 | 74 | 1038.0 |
| 20260905192235 | 70 | 332 | 0.0 | 0.0 | 0.00 | 0.00 | 0.00 | 75 | 1038.2 |
| 20260905191734 | 70 | 339 | 0.0 | 0.0 | 0.00 | 0.00 | 0.00 | 74 | 1038.0 |
| 20260905191233 | 69 | 325 | 0.0 | 0.0 | 0.00 | 0.00 | 0.00 | 75 | 1038.0 |
| 20260905190732 | 69 | 339 | 0.0 | 0.0 | 0.00 | 0.00 | 0.00 | 76 | 1038.1 |
| 20260905190231 | 70 | 5 | 0.0 | 0.0 | 0.00 | 0.00 | 0.00 | 75 | 1038.2 |
| 20260905185730 | 70 | 346 | 0.0 | 0.0 | 0.00 | 0.00 | 0.00 | 75 | 1038.1 |
| 20260905185225 | 69 | 305 | 0.0 | 0.0 | 0.00 | 0.00 | 0.00 | 76 | 1037.9 |
| 20260905184725 | 69 | 351 | 0.0 | 0.0 | 0.00 | 0.00 | 0.00 | 76 | 1037.8 |
| 20260905184224 | 69 | 336 | 0.0 | 0.0 | 0.00 | 0.00 | 0.00 | 75 | 1037.9 |
| 20260905183723 | 69 | 32 | 1.0 | 2.0 | 0.00 | 0.00 | 0.00 | 76 | 1037.9 |
| 20260905183219 | 69 | 22 | 2.0 | 2.0 | 0.00 | 0.00 | 0.00 | 76 | 1037.8 |
| 20260905182713 | 69 | 34 | 1.0 | 1.0 | 0.00 | 0.00 | 0.00 | 76 | 1037.7 |
| 20260905182213 | 69 | 328 | 0.0 | 0.0 | 0.00 | 0.00 | 0.00 | 76 | 1037.6 |
| 20260905181708 | 69 | 352 | 0.0 | 0.0 | 0.00 | 0.00 | 0.00 | 77 | 1038.0 |
| 20260905181207 | 69 | 356 | 0.0 | 0.0 | 0.00 | 0.00 | 0.00 | 76 | 1038.0 |
| 20260905180702 | 69 | 47 | 0.0 | 1.0 | 0.00 | 0.00 | 0.00 | 75 | 1038.0 |
| 20260905180157 | 69 | 68 | 1.0 | 2.0 | 0.00 | 0.00 | 0.00 | 75 | 1038.0 |
| 20260905175656 | 68 | 321 | 0.0 | 0.0 | 0.00 | 0.00 | 0.00 | 75 | 1038.0 |
| 20260905175152 | 68 | 343 | 0.0 | 0.0 | 0.00 | 0.00 | 0.00 | 76 | 1038.0 |
| 20260905174647 | 68 | 343 | 0.0 | 1.0 | 0.00 | 0.00 | 0.00 | 76 | 1038.1 |
| 20260905174143 | 68 | 357 | 0.0 | 0.0 | 0.00 | 0.00 | 0.00 | 78 | 1038.0 |
| 20260905173638 | 68 | 325 | 0.0 | 0.0 | 0.00 | 0.00 | 0.00 | 78 | 1038.1 |
| 20260905173134 | 68 | 344 | 0.0 | 0.0 | 0.00 | 0.00 | 0.00 | 78 | 1038.1 |
| 20260905172633 | 68 | 336 | 0.0 | 0.0 | 0.00 | 0.00 | 0.00 | 77 | 1038.0 |
| 20260905172128 | 68 | 343 | 0.0 | 0.0 | 0.00 | 0.00 | 0.00 | 77 | 1037.9 |
| 20260905171624 | 69 | 336 | 0.0 | 0.0 | 0.00 | 0.00 | 0.00 | 74 | 1037.9 |
| 20260905171120 | 68 | 336 | 0.0 | 0.0 | 0.00 | 0.00 | 0.00 | 75 | 1038.1 |
| 20260905170616 | 69 | 61 | 0.0 | 1.0 | 0.00 | 0.00 | 0.00 | 74 | 1038.1 |
| 20260905170111 | 68 | 292 | 0.0 | 1.0 | 0.00 | 0.00 | 0.00 | 75 | 1038.0 |
| 20260905165606 | 68 | 330 | 1.0 | 2.0 | 0.00 | 0.00 | 0.00 | 75 | 1038.1 |
| 20260905165101 | 68 | 354 | 0.0 | 0.0 | 0.00 | 0.00 | 0.00 | 75 | 1038.2 |
| 20260905164555 | 68 | 264 | 1.0 | 2.0 | 0.00 | 0.00 | 0.00 | 75 | 1038.0 |
| 20260905164050 | 69 | 343 | 0.0 | 0.0 | 0.00 | 0.00 | 0.00 | 76 | 1038.1 |